| time (UTC) | temp F | wind direction | speed MPH | gust MPH | rain 1hr in | rain 24hr in | rain mn in | humidity % | barometer mb |
| 20260505165948 | 53 | 297 | 3.0 | 15.0 | 0.00 | 0.00 | 0.00 | 42 | 1010.6 |
| 20260505165444 | 53 | 231 | 24.0 | 24.0 | 0.00 | 0.00 | 0.00 | 39 | 1010.6 |
| 20260505164940 | 53 | 215 | 11.0 | 18.0 | 0.00 | 0.00 | 0.00 | 40 | 1010.6 |
| 20260505164437 | 53 | 209 | 10.0 | 17.0 | 0.00 | 0.00 | 0.00 | 41 | 1010.7 |
| 20260505163934 | 54 | 273 | 2.0 | 12.0 | 0.00 | 0.00 | 0.00 | 44 | 1010.4 |
| 20260505163433 | 53 | 294 | 3.0 | 12.0 | 0.00 | 0.00 | 0.00 | 41 | 1010.6 |
| 20260505162932 | 53 | 264 | 0.0 | 14.0 | 0.00 | 0.00 | 0.00 | 42 | 1010.7 |
| 20260505162427 | 53 | 188 | 4.0 | 11.0 | 0.00 | 0.00 | 0.00 | 41 | 1010.5 |
| 20260505161924 | 53 | 221 | 8.0 | 13.0 | 0.00 | 0.00 | 0.00 | 42 | 1010.3 |
| 20260505161421 | 53 | 216 | 12.0 | 18.0 | 0.00 | 0.00 | 0.00 | 42 | 1010.6 |
| 20260505160919 | 52 | 207 | 7.0 | 13.0 | 0.00 | 0.00 | 0.00 | 45 | 1010.6 |
| 20260505160416 | 52 | 143 | 2.0 | 14.0 | 0.00 | 0.00 | 0.00 | 46 | 1010.4 |
| 20260505153355 | 51 | 228 | 6.0 | 15.0 | 0.00 | 0.00 | 0.00 | 45 | 1010.5 |
| 20260505152852 | 51 | 218 | 7.0 | 15.0 | 0.00 | 0.00 | 0.00 | 45 | 1010.6 |
| 20260505152349 | 51 | 191 | 2.0 | 9.0 | 0.00 | 0.00 | 0.00 | 47 | 1010.7 |
| 20260505151843 | 50 | 211 | 8.0 | 14.0 | 0.00 | 0.00 | 0.00 | 45 | 1010.6 |
| 20260505151340 | 50 | 286 | 2.0 | 11.0 | 0.00 | 0.00 | 0.00 | 46 | 1010.9 |
| 20260505150831 | 50 | 221 | 0.0 | 11.0 | 0.00 | 0.00 | 0.00 | 47 | 1010.7 |
| 20260505150323 | 50 | 227 | 9.0 | 16.0 | 0.00 | 0.00 | 0.00 | 46 | 1011.0 |
| 20260505140247 | 49 | 293 | 3.0 | 9.0 | 0.00 | 0.00 | 0.00 | 47 | 1011.1 |
| 20260505130211 | 48 | 288 | 3.0 | 8.0 | 0.00 | 0.00 | 0.00 | 53 | 1010.5 |
| 20260505124701 | 48 | 188 | 3.0 | 5.0 | 0.00 | 0.00 | 0.00 | 54 | 1010.4 |
| 20260505124157 | 48 | 242 | 2.0 | 10.0 | 0.00 | 0.00 | 0.00 | 54 | 1010.1 |
| 20260505123653 | 48 | 250 | 3.0 | 10.0 | 0.00 | 0.00 | 0.00 | 53 | 1010.5 |
| 20260505123150 | 48 | 39 | 2.0 | 9.0 | 0.00 | 0.00 | 0.00 | 53 | 1010.5 |
| 20260505122647 | 48 | 283 | 4.0 | 8.0 | 0.00 | 0.00 | 0.00 | 53 | 1010.7 |
| 20260505122144 | 47 | 269 | 5.0 | 7.0 | 0.00 | 0.00 | 0.00 | 53 | 1010.8 |
| 20260505121641 | 47 | 272 | 2.0 | 6.0 | 0.00 | 0.00 | 0.00 | 54 | 1010.5 |
| 20260505121137 | 47 | 254 | 6.0 | 7.0 | 0.00 | 0.00 | 0.00 | 54 | 1010.5 |
| 20260505120634 | 47 | 239 | 5.0 | 8.0 | 0.00 | 0.00 | 0.00 | 54 | 1010.7 |
| 20260505120130 | 47 | 183 | 3.0 | 9.0 | 0.00 | 0.00 | 0.00 | 54 | 1010.7 |
| 20260505115624 | 47 | 276 | 3.0 | 5.0 | 0.00 | 0.00 | 0.00 | 53 | 1010.6 |
| 20260505115122 | 47 | 309 | 2.0 | 9.0 | 0.00 | 0.00 | 0.00 | 52 | 1010.6 |
| 20260505114618 | 47 | 251 | 2.0 | 7.0 | 0.00 | 0.00 | 0.00 | 52 | 1010.0 |
| 20260505114115 | 47 | 19 | 0.0 | 11.0 | 0.00 | 0.00 | 0.00 | 52 | 1009.7 |
| 20260505113611 | 47 | 249 | 4.0 | 9.0 | 0.00 | 0.00 | 0.00 | 53 | 1009.9 |
| 20260505113108 | 47 | 238 | 3.0 | 6.0 | 0.00 | 0.00 | 0.00 | 55 | 1009.4 |
| 20260505112604 | 48 | 183 | 1.0 | 5.0 | 0.00 | 0.00 | 0.00 | 54 | 1009.9 |
| 20260505112102 | 47 | 19 | 2.0 | 7.0 | 0.00 | 0.00 | 0.00 | 54 | 1008.4 |
| 20260505111556 | 47 | 191 | 2.0 | 6.0 | 0.00 | 0.00 | 0.00 | 54 | 1008.5 |
| 20260505111052 | 48 | 329 | 0.0 | 5.0 | 0.00 | 0.00 | 0.00 | 54 | 1008.5 |
| 20260505110549 | 48 | 269 | 2.0 | 5.0 | 0.00 | 0.00 | 0.00 | 53 | 1009.1 |
| 20260505102021 | 48 | 268 | 1.0 | 9.0 | 0.00 | 0.00 | 0.00 | 53 | 1008.6 |
| 20260505101520 | 48 | 297 | 4.0 | 9.0 | 0.00 | 0.00 | 0.00 | 53 | 1008.6 |
| 20260505101016 | 48 | 230 | 4.0 | 11.0 | 0.00 | 0.00 | 0.00 | 53 | 1008.6 |
| 20260505100513 | 48 | 289 | 3.0 | 11.0 | 0.00 | 0.00 | 0.00 | 53 | 1008.2 |
| 20260505100010 | 48 | 342 | 1.0 | 10.0 | 0.00 | 0.00 | 0.00 | 53 | 1008.1 |
| 20260505095506 | 49 | 22 | 1.0 | 8.0 | 0.00 | 0.00 | 0.00 | 54 | 1008.2 |
| 20260505095002 | 49 | 257 | 2.0 | 8.0 | 0.00 | 0.00 | 0.00 | 53 | 1008.4 |
| 20260505094459 | 49 | 297 | 3.0 | 4.0 | 0.00 | 0.00 | 0.00 | 54 | 1008.2 |
| 20260505093955 | 49 | 354 | 0.0 | 8.0 | 0.00 | 0.00 | 0.00 | 54 | 1008.2 |
| 20260505093452 | 49 | 7 | 2.0 | 8.0 | 0.00 | 0.00 | 0.00 | 54 | 1008.5 |
| 20260505092949 | 49 | 285 | 2.0 | 11.0 | 0.00 | 0.00 | 0.00 | 54 | 1008.0 |
| 20260505092447 | 49 | 328 | 8.0 | 12.0 | 0.00 | 0.00 | 0.00 | 53 | 1007.9 |
| 20260505091944 | 49 | 234 | 3.0 | 10.0 | 0.00 | 0.00 | 0.00 | 54 | 1008.3 |
| 20260505091441 | 50 | 337 | 3.0 | 15.0 | 0.00 | 0.00 | 0.00 | 55 | 1007.9 |
| 20260505090939 | 50 | 117 | 1.0 | 13.0 | 0.00 | 0.00 | 0.00 | 55 | 1007.5 |
| 20260505090438 | 50 | 321 | 3.0 | 9.0 | 0.00 | 0.00 | 0.00 | 56 | 1007.8 |
| 20260505085934 | 50 | 295 | 13.0 | 14.0 | 0.00 | 0.00 | 0.00 | 56 | 1007.6 |
| 20260505085432 | 50 | 156 | 0.0 | 9.0 | 0.00 | 0.00 | 0.00 | 57 | 1007.3 |
| 20260505084930 | 51 | 273 | 2.0 | 5.0 | 0.00 | 0.00 | 0.00 | 57 | 1007.1 |
| 20260505084428 | 51 | 315 | 4.0 | 9.0 | 0.00 | 0.00 | 0.00 | 56 | 1007.1 |
| 20260505083926 | 51 | 323 | 4.0 | 8.0 | 0.00 | 0.00 | 0.00 | 56 | 1006.7 |
| 20260505083423 | 51 | 334 | 2.0 | 5.0 | 0.00 | 0.00 | 0.00 | 55 | 1006.8 |
| 20260505082919 | 51 | 253 | 3.0 | 6.0 | 0.00 | 0.00 | 0.00 | 54 | 1006.7 |
| 20260505082415 | 52 | 317 | 2.0 | 7.0 | 0.00 | 0.00 | 0.00 | 54 | 1006.4 |
| 20260505081912 | 52 | 307 | 5.0 | 12.0 | 0.00 | 0.00 | 0.00 | 52 | 1006.3 |
| 20260505081409 | 52 | 329 | 4.0 | 12.0 | 0.00 | 0.00 | 0.00 | 53 | 1006.5 |
| 20260505080906 | 52 | 252 | 3.0 | 9.0 | 0.00 | 0.00 | 0.00 | 54 | 1006.4 |
| 20260505080402 | 53 | 199 | 2.0 | 7.0 | 0.00 | 0.00 | 0.00 | 53 | 1005.8 |
| 20260505075857 | 53 | 314 | 2.0 | 8.0 | 0.00 | 0.00 | 0.00 | 53 | 1005.9 |
| 20260505075354 | 53 | 299 | 3.0 | 9.0 | 0.00 | 0.00 | 0.00 | 53 | 1005.9 |
| 20260505074852 | 53 | 294 | 3.0 | 10.0 | 0.00 | 0.00 | 0.00 | 52 | 1005.6 |
| 20260505074349 | 54 | 5 | 3.0 | 7.0 | 0.00 | 0.00 | 0.00 | 52 | 1005.6 |
| 20260505073846 | 54 | 350 | 3.0 | 8.0 | 0.00 | 0.00 | 0.00 | 52 | 1005.5 |
| 20260505073344 | 55 | 277 | 2.0 | 8.0 | 0.00 | 0.00 | 0.00 | 51 | 1005.6 |
| 20260505072840 | 55 | 297 | 1.0 | 11.0 | 0.00 | 0.00 | 0.00 | 51 | 1005.6 |
| 20260505072336 | 55 | 269 | 3.0 | 10.0 | 0.00 | 0.00 | 0.00 | 50 | 1005.0 |
| 20260505071833 | 55 | 311 | 6.0 | 11.0 | 0.00 | 0.00 | 0.00 | 49 | 1005.1 |
| 20260505071329 | 55 | 278 | 8.0 | 11.0 | 0.00 | 0.00 | 0.00 | 49 | 1005.0 |
| 20260505070828 | 56 | 288 | 7.0 | 14.0 | 0.00 | 0.00 | 0.00 | 48 | 1005.0 |
| 20260505070324 | 56 | 241 | 1.0 | 15.0 | 0.00 | 0.00 | 0.00 | 48 | 1005.2 |
| 20260505065819 | 56 | 275 | 5.0 | 11.0 | 0.00 | 0.00 | 0.00 | 48 | 1005.0 |
| 20260505065316 | 57 | 99 | 3.0 | 9.0 | 0.00 | 0.00 | 0.00 | 47 | 1005.1 |
| 20260505064813 | 57 | 294 | 6.0 | 7.0 | 0.00 | 0.00 | 0.00 | 47 | 1005.1 |
| 20260505064310 | 57 | 290 | 5.0 | 12.0 | 0.00 | 0.00 | 0.00 | 46 | 1004.7 |
| 20260505063808 | 57 | 284 | 3.0 | 9.0 | 0.00 | 0.00 | 0.00 | 46 | 1005.0 |
| 20260505063304 | 58 | 236 | 3.0 | 10.0 | 0.00 | 0.00 | 0.00 | 46 | 1004.9 |
| 20260505062801 | 58 | 306 | 4.0 | 8.0 | 0.00 | 0.00 | 0.00 | 45 | 1004.8 |
| 20260505062258 | 58 | 268 | 9.0 | 11.0 | 0.00 | 0.00 | 0.00 | 45 | 1004.6 |
| 20260505061755 | 58 | 231 | 3.0 | 12.0 | 0.00 | 0.00 | 0.00 | 44 | 1004.4 |
| 20260505061253 | 58 | 228 | 7.0 | 11.0 | 0.00 | 0.00 | 0.00 | 44 | 1004.4 |
| 20260505060750 | 59 | 227 | 3.0 | 14.0 | 0.00 | 0.00 | 0.00 | 43 | 1004.5 |
| 20260505060247 | 59 | 268 | 7.0 | 15.0 | 0.00 | 0.00 | 0.00 | 42 | 1004.5 |
| 20260505055742 | 59 | 252 | 7.0 | 13.0 | 0.00 | 0.00 | 0.00 | 41 | 1004.3 |
| 20260505055239 | 59 | 278 | 5.0 | 14.0 | 0.00 | 0.00 | 0.00 | 42 | 1004.3 |
| 20260505054736 | 59 | 223 | 3.0 | 15.0 | 0.00 | 0.00 | 0.00 | 42 | 1004.4 |
| 20260505054233 | 59 | 288 | 4.0 | 12.0 | 0.00 | 0.00 | 0.00 | 42 | 1004.2 |
| 20260505053732 | 59 | 276 | 6.0 | 16.0 | 0.00 | 0.00 | 0.00 | 41 | 1004.1 |
| 20260505053227 | 60 | 229 | 4.0 | 9.0 | 0.00 | 0.00 | 0.00 | 41 | 1004.5 |
| 20260505052725 | 59 | 217 | 2.0 | 9.0 | 0.00 | 0.00 | 0.00 | 40 | 1004.3 |
| 20260505052221 | 60 | 223 | 2.0 | 7.0 | 0.00 | 0.00 | 0.00 | 41 | 1004.0 |
| 20260505051719 | 60 | 252 | 6.0 | 9.0 | 0.00 | 0.00 | 0.00 | 39 | 1004.2 |
| 20260505051217 | 60 | 213 | 4.0 | 13.0 | 0.00 | 0.00 | 0.00 | 39 | 1004.0 |
| 20260505050715 | 60 | 285 | 7.0 | 11.0 | 0.00 | 0.00 | 0.00 | 39 | 1003.5 |
| 20260505050213 | 61 | 219 | 0.0 | 9.0 | 0.00 | 0.00 | 0.00 | 39 | 1003.5 |
| 20260505041643 | 63 | 182 | 8.0 | 17.0 | 0.00 | 0.00 | 0.00 | 41 | 1003.5 |
| 20260505041140 | 63 | 226 | 2.0 | 7.0 | 0.00 | 0.00 | 0.00 | 44 | 1003.3 |
| 20260505040637 | 63 | 227 | 3.0 | 7.0 | 0.00 | 0.00 | 0.00 | 45 | 1003.3 |
| 20260505040134 | 63 | 215 | 2.0 | 10.0 | 0.00 | 0.00 | 0.00 | 45 | 1003.0 |
| 20260505035630 | 63 | 212 | 5.0 | 7.0 | 0.00 | 0.00 | 0.00 | 45 | 1002.8 |
| 20260505035127 | 64 | 264 | 0.0 | 4.0 | 0.00 | 0.00 | 0.00 | 44 | 1002.9 |
| 20260505034624 | 64 | 292 | 1.0 | 5.0 | 0.00 | 0.00 | 0.00 | 43 | 1002.9 |
| 20260505034121 | 64 | 249 | 2.0 | 5.0 | 0.00 | 0.00 | 0.00 | 42 | 1002.4 |
| 20260505033617 | 65 | 258 | 6.0 | 10.0 | 0.00 | 0.00 | 0.00 | 41 | 1002.3 |
| 20260505033116 | 65 | 272 | 5.0 | 13.0 | 0.00 | 0.00 | 0.00 | 42 | 1002.2 |
| 20260505032613 | 66 | 316 | 2.0 | 10.0 | 0.00 | 0.00 | 0.00 | 43 | 1002.2 |
| 20260505032109 | 67 | 294 | 1.0 | 16.0 | 0.00 | 0.00 | 0.00 | 42 | 1002.0 |
| 20260505031607 | 67 | 258 | 5.0 | 17.0 | 0.00 | 0.00 | 0.00 | 41 | 1002.2 |
| 20260505031103 | 67 | 260 | 5.0 | 17.0 | 0.00 | 0.00 | 0.00 | 41 | 1002.2 |
| 20260505030600 | 68 | 260 | 3.0 | 13.0 | 0.00 | 0.00 | 0.00 | 40 | 1002.1 |
| 20260505030056 | 68 | 263 | 4.0 | 12.0 | 0.00 | 0.00 | 0.00 | 38 | 1002.3 |
| 20260505025551 | 68 | 309 | 6.0 | 21.0 | 0.00 | 0.00 | 0.00 | 38 | 1002.1 |
| 20260505025051 | 68 | 251 | 22.0 | 22.0 | 0.00 | 0.00 | 0.00 | 42 | 1002.1 |
| 20260505024547 | 68 | 227 | 8.0 | 10.0 | 0.00 | 0.00 | 0.00 | 46 | 1002.1 |
| 20260505024045 | 67 | 252 | 3.0 | 11.0 | 0.00 | 0.00 | 0.00 | 51 | 1001.9 |
| 20260505023542 | 66 | 217 | 5.0 | 8.0 | 0.00 | 0.00 | 0.00 | 63 | 1001.5 |
| 20260505023039 | 66 | 309 | 1.0 | 5.0 | 0.00 | 0.00 | 0.00 | 67 | 1001.6 |
| 20260505022537 | 66 | 219 | 5.0 | 9.0 | 0.00 | 0.00 | 0.00 | 66 | 1001.4 |
| 20260505022034 | 66 | 189 | 4.0 | 14.0 | 0.00 | 0.00 | 0.00 | 66 | 1001.3 |
| 20260505021530 | 67 | 191 | 7.0 | 13.0 | 0.00 | 0.00 | 0.00 | 67 | 1001.3 |
| 20260505021027 | 67 | 175 | 10.0 | 14.0 | 0.00 | 0.00 | 0.00 | 67 | 1001.2 |
| 20260505020526 | 67 | 172 | 6.0 | 16.0 | 0.00 | 0.00 | 0.00 | 67 | 1001.0 |
| 20260505020024 | 67 | 188 | 9.0 | 15.0 | 0.00 | 0.00 | 0.00 | 67 | 1001.0 |
| 20260505015521 | 67 | 166 | 6.0 | 14.0 | 0.00 | 0.00 | 0.00 | 67 | 1000.6 |
| 20260505015018 | 67 | 179 | 4.0 | 14.0 | 0.00 | 0.00 | 0.00 | 67 | 1000.6 |
| 20260505014515 | 67 | 158 | 6.0 | 15.0 | 0.00 | 0.00 | 0.00 | 65 | 1000.3 |
| 20260505014012 | 67 | 169 | 5.0 | 21.0 | 0.00 | 0.00 | 0.00 | 65 | 1000.2 |
| 20260505013509 | 67 | 150 | 12.0 | 19.0 | 0.00 | 0.00 | 0.00 | 63 | 1000.3 |
| 20260505013006 | 68 | 157 | 11.0 | 22.0 | 0.00 | 0.00 | 0.00 | 60 | 999.9 |
| 20260505012504 | 68 | 170 | 5.0 | 17.0 | 0.00 | 0.00 | 0.00 | 59 | 999.9 |
| 20260505012001 | 68 | 160 | 10.0 | 15.0 | 0.00 | 0.00 | 0.00 | 57 | 999.9 |
| 20260505011456 | 68 | 173 | 7.0 | 16.0 | 0.00 | 0.00 | 0.00 | 56 | 1000.0 |
| 20260505010954 | 69 | 169 | 11.0 | 20.0 | 0.00 | 0.00 | 0.00 | 55 | 1000.0 |
| 20260505010449 | 69 | 156 | 7.0 | 20.0 | 0.00 | 0.00 | 0.00 | 54 | 999.9 |
| 20260505005946 | 70 | 170 | 9.0 | 13.0 | 0.00 | 0.00 | 0.00 | 49 | 999.8 |
| 20260505005442 | 71 | 142 | 6.0 | 16.0 | 0.00 | 0.00 | 0.00 | 47 | 999.5 |
| 20260505004940 | 72 | 161 | 6.0 | 13.0 | 0.00 | 0.00 | 0.00 | 47 | 999.2 |
| 20260505004437 | 72 | 170 | 4.0 | 9.0 | 0.00 | 0.00 | 0.00 | 47 | 998.7 |
| 20260505003934 | 72 | 199 | 9.0 | 11.0 | 0.00 | 0.00 | 0.00 | 46 | 998.8 |
| 20260505003431 | 72 | 180 | 6.0 | 14.0 | 0.00 | 0.00 | 0.00 | 45 | 998.7 |
| 20260505002927 | 72 | 192 | 8.0 | 11.0 | 0.00 | 0.00 | 0.00 | 45 | 998.7 |
| 20260505002423 | 72 | 212 | 6.0 | 12.0 | 0.00 | 0.00 | 0.00 | 44 | 998.7 |
| 20260505001922 | 73 | 180 | 10.0 | 15.0 | 0.00 | 0.00 | 0.00 | 43 | 998.6 |
| 20260505001419 | 73 | 204 | 4.0 | 15.0 | 0.00 | 0.00 | 0.00 | 43 | 998.5 |
| 20260505000916 | 74 | 161 | 4.0 | 12.0 | 0.00 | 0.00 | 0.00 | 42 | 998.3 |
| 20260505000414 | 74 | 178 | 4.0 | 10.0 | 0.00 | 0.00 | 0.00 | 41 | 998.2 |
| 20260504235910 | 74 | 218 | 4.0 | 9.0 | 0.00 | 0.00 | 0.00 | 43 | 998.4 |
| 20260504235408 | 74 | 193 | 10.0 | 12.0 | 0.00 | 0.00 | 0.00 | 42 | 998.5 |
| 20260504234904 | 74 | 165 | 3.0 | 14.0 | 0.00 | 0.00 | 0.00 | 42 | 998.5 |
| 20260504234402 | 74 | 207 | 8.0 | 17.0 | 0.00 | 0.00 | 0.00 | 41 | 998.6 |
| 20260504233858 | 74 | 198 | 5.0 | 16.0 | 0.00 | 0.00 | 0.00 | 42 | 998.5 |
| 20260504233353 | 74 | 190 | 5.0 | 15.0 | 0.00 | 0.00 | 0.00 | 43 | 998.2 |
| 20260504232850 | 74 | 194 | 8.0 | 13.0 | 0.00 | 0.00 | 0.00 | 44 | 998.6 |
| 20260504232348 | 73 | 186 | 9.0 | 15.0 | 0.00 | 0.00 | 0.00 | 44 | 998.9 |
| 20260504231844 | 73 | 180 | 6.0 | 23.0 | 0.00 | 0.00 | 0.00 | 44 | 999.2 |
| 20260504231341 | 73 | 205 | 8.0 | 17.0 | 0.00 | 0.00 | 0.00 | 45 | 998.8 |
| 20260504230837 | 74 | 159 | 13.0 | 24.0 | 0.00 | 0.00 | 0.00 | 43 | 999.2 |
| 20260504230335 | 74 | 203 | 17.0 | 19.0 | 0.00 | 0.00 | 0.00 | 41 | 999.5 |
| 20260504225833 | 74 | 170 | 9.0 | 22.0 | 0.00 | 0.00 | 0.00 | 42 | 999.3 |
| 20260504225329 | 75 | 183 | 16.0 | 16.0 | 0.00 | 0.00 | 0.00 | 39 | 999.5 |
| 20260504224827 | 77 | 206 | 6.0 | 37.0 | 0.00 | 0.00 | 0.00 | 38 | 999.4 |
| 20260504224324 | 78 | 209 | 20.0 | 33.0 | 0.00 | 0.00 | 0.00 | 36 | 999.3 |
| 20260504223821 | 78 | 194 | 9.0 | 24.0 | 0.00 | 0.00 | 0.00 | 36 | 999.1 |
| 20260504223316 | 79 | 198 | 7.0 | 15.0 | 0.00 | 0.00 | 0.00 | 35 | 999.2 |
| 20260504222813 | 78 | 207 | 13.0 | 16.0 | 0.00 | 0.00 | 0.00 | 35 | 999.6 |
| 20260504222310 | 77 | 182 | 9.0 | 20.0 | 0.00 | 0.00 | 0.00 | 35 | 999.1 |
| 20260504221808 | 78 | 205 | 15.0 | 17.0 | 0.00 | 0.00 | 0.00 | 35 | 999.3 |
| 20260504221304 | 78 | 189 | 15.0 | 25.0 | 0.00 | 0.00 | 0.00 | 35 | 999.3 |
| 20260504220801 | 79 | 168 | 8.0 | 20.0 | 0.00 | 0.00 | 0.00 | 35 | 999.1 |
| 20260504220258 | 79 | 204 | 8.0 | 25.0 | 0.00 | 0.00 | 0.00 | 34 | 999.3 |
| 20260504215756 | 80 | 177 | 5.0 | 16.0 | 0.00 | 0.00 | 0.00 | 35 | 999.4 |
| 20260504215252 | 79 | 168 | 7.0 | 16.0 | 0.00 | 0.00 | 0.00 | 34 | 999.4 |
| 20260504214748 | 79 | 213 | 17.0 | 17.0 | 0.00 | 0.00 | 0.00 | 33 | 999.7 |
| 20260504214244 | 79 | 188 | 5.0 | 12.0 | 0.00 | 0.00 | 0.00 | 32 | 999.4 |
| 20260504213741 | 79 | 203 | 14.0 | 15.0 | 0.00 | 0.00 | 0.00 | 33 | 999.4 |
| 20260504213237 | 78 | 192 | 9.0 | 25.0 | 0.00 | 0.00 | 0.00 | 32 | 999.5 |
| 20260504212735 | 79 | 198 | 11.0 | 20.0 | 0.00 | 0.00 | 0.00 | 31 | 999.5 |
| 20260504212231 | 79 | 186 | 8.0 | 16.0 | 0.00 | 0.00 | 0.00 | 31 | 999.8 |
| 20260504211729 | 78 | 181 | 5.0 | 19.0 | 0.00 | 0.00 | 0.00 | 32 | 999.6 |
| 20260504211225 | 79 | 213 | 15.0 | 22.0 | 0.00 | 0.00 | 0.00 | 30 | 1000.0 |
| 20260504210723 | 80 | 158 | 10.0 | 19.0 | 0.00 | 0.00 | 0.00 | 32 | 999.7 |
| 20260504210220 | 80 | 207 | 10.0 | 19.0 | 0.00 | 0.00 | 0.00 | 31 | 1000.1 |
| 20260504205716 | 79 | 218 | 8.0 | 18.0 | 0.00 | 0.00 | 0.00 | 31 | 1000.0 |
| 20260504205214 | 80 | 175 | 7.0 | 25.0 | 0.00 | 0.00 | 0.00 | 31 | 1000.0 |
| 20260504204712 | 79 | 260 | 13.0 | 25.0 | 0.00 | 0.00 | 0.00 | 31 | 1000.1 |
| 20260504204210 | 79 | 196 | 15.0 | 18.0 | 0.00 | 0.00 | 0.00 | 30 | 1000.0 |
| 20260504203709 | 79 | 327 | 4.0 | 20.0 | 0.00 | 0.00 | 0.00 | 33 | 1000.2 |
| 20260504203207 | 79 | 185 | 5.0 | 14.0 | 0.00 | 0.00 | 0.00 | 31 | 999.9 |
| 20260504202706 | 79 | 203 | 4.0 | 17.0 | 0.00 | 0.00 | 0.00 | 30 | 1000.5 |
| 20260504202204 | 78 | 201 | 14.0 | 22.0 | 0.00 | 0.00 | 0.00 | 30 | 1000.5 |
| 20260504201700 | 78 | 190 | 10.0 | 17.0 | 0.00 | 0.00 | 0.00 | 32 | 1000.3 |
| 20260504201158 | 78 | 202 | 14.0 | 24.0 | 0.00 | 0.00 | 0.00 | 32 | 1000.2 |
| 20260504200655 | 78 | 202 | 9.0 | 25.0 | 0.00 | 0.00 | 0.00 | 32 | 1000.5 |
| 20260504200152 | 79 | 215 | 2.0 | 13.0 | 0.00 | 0.00 | 0.00 | 34 | 1000.6 |
| 20260504195647 | 78 | 196 | 6.0 | 17.0 | 0.00 | 0.00 | 0.00 | 32 | 1000.6 |
| 20260504195144 | 78 | 203 | 8.0 | 17.0 | 0.00 | 0.00 | 0.00 | 32 | 1000.9 |
| 20260504194641 | 77 | 205 | 10.0 | 22.0 | 0.00 | 0.00 | 0.00 | 31 | 1000.8 |
| 20260504194137 | 78 | 242 | 9.0 | 28.0 | 0.00 | 0.00 | 0.00 | 31 | 1000.9 |
| 20260504193633 | 78 | 189 | 11.0 | 20.0 | 0.00 | 0.00 | 0.00 | 30 | 1000.9 |
| 20260504193131 | 78 | 201 | 16.0 | 22.0 | 0.00 | 0.00 | 0.00 | 31 | 1000.8 |
| 20260504192629 | 77 | 199 | 10.0 | 22.0 | 0.00 | 0.00 | 0.00 | 31 | 1001.2 |
| 20260504192127 | 77 | 196 | 26.0 | 28.0 | 0.00 | 0.00 | 0.00 | 32 | 1001.1 |
| 20260504191625 | 77 | 195 | 9.0 | 25.0 | 0.00 | 0.00 | 0.00 | 32 | 1001.2 |
| 20260504191121 | 77 | 184 | 14.0 | 26.0 | 0.00 | 0.00 | 0.00 | 32 | 1001.2 |
| 20260504190617 | 77 | 221 | 13.0 | 24.0 | 0.00 | 0.00 | 0.00 | 33 | 1001.5 |
| 20260504190114 | 76 | 195 | 15.0 | 22.0 | 0.00 | 0.00 | 0.00 | 32 | 1001.3 |
| 20260504185610 | 77 | 179 | 9.0 | 21.0 | 0.00 | 0.00 | 0.00 | 32 | 1001.3 |
| 20260504185107 | 77 | 156 | 11.0 | 18.0 | 0.00 | 0.00 | 0.00 | 36 | 1001.3 |
| 20260504184603 | 77 | 229 | 16.0 | 23.0 | 0.00 | 0.00 | 0.00 | 32 | 1001.3 |
| 20260504184058 | 76 | 201 | 8.0 | 16.0 | 0.00 | 0.00 | 0.00 | 33 | 1001.5 |
| 20260504183555 | 76 | 183 | 8.0 | 22.0 | 0.00 | 0.00 | 0.00 | 33 | 1001.7 |
| 20260504183053 | 76 | 166 | 8.0 | 16.0 | 0.00 | 0.00 | 0.00 | 35 | 1001.3 |
| 20260504182550 | 75 | 184 | 11.0 | 23.0 | 0.00 | 0.00 | 0.00 | 32 | 1001.6 |
| 20260504182048 | 75 | 199 | 5.0 | 19.0 | 0.00 | 0.00 | 0.00 | 32 | 1001.3 |
| 20260504181544 | 75 | 173 | 14.0 | 24.0 | 0.00 | 0.00 | 0.00 | 32 | 1001.5 |
| 20260504181043 | 75 | 230 | 18.0 | 20.0 | 0.00 | 0.00 | 0.00 | 34 | 1001.3 |
| 20260504180541 | 75 | 210 | 14.0 | 23.0 | 0.00 | 0.00 | 0.00 | 34 | 1001.5 |
| 20260504180040 | 75 | 182 | 8.0 | 21.0 | 0.00 | 0.00 | 0.00 | 33 | 1001.5 |
| 20260504175537 | 75 | 167 | 18.0 | 25.0 | 0.00 | 0.00 | 0.00 | 34 | 1001.6 |
| 20260504175034 | 75 | 193 | 9.0 | 17.0 | 0.00 | 0.00 | 0.00 | 34 | 1001.7 |
| 20260504174532 | 74 | 197 | 11.0 | 22.0 | 0.00 | 0.00 | 0.00 | 34 | 1001.6 |
| 20260504174028 | 74 | 211 | 9.0 | 32.0 | 0.00 | 0.00 | 0.00 | 35 | 1002.0 |
| 20260504173525 | 75 | 192 | 19.0 | 19.0 | 0.00 | 0.00 | 0.00 | 35 | 1001.6 |
| 20260504173022 | 74 | 226 | 14.0 | 20.0 | 0.00 | 0.00 | 0.00 | 34 | 1001.6 |
| 20260504172518 | 74 | 201 | 6.0 | 22.0 | 0.00 | 0.00 | 0.00 | 34 | 1002.0 |
| 20260504172015 | 73 | 179 | 12.0 | 24.0 | 0.00 | 0.00 | 0.00 | 33 | 1002.0 |
| 20260504171512 | 74 | 222 | 10.0 | 23.0 | 0.00 | 0.00 | 0.00 | 35 | 1002.2 |
| 20260504171009 | 74 | 226 | 6.0 | 19.0 | 0.00 | 0.00 | 0.00 | 36 | 1002.5 |
| 20260504170505 | 74 | 214 | 15.0 | 21.0 | 0.00 | 0.00 | 0.00 | 35 | 1002.3 |